This is the latest recevied weather packets stored in our database for station/object HB9MIR-13. If no packets are shown the sender has not sent any weather packets the latest 10 day(s).
| Time | Temp. | Humidity | Pressure | Rain* | Wind** | Luminosity | Snow |
|---|---|---|---|---|---|---|---|
| 1777784433 | 10° C | 88% | 1015 hPa | 0 mm | - | 35 W/m² | - |
| 1777783762 | 10.56° C | 88% | 1015 hPa | 0 mm | - | 29 W/m² | - |
| 1777783057 | 10° C | 87% | 1014.9 hPa | 0 mm | - | 17 W/m² | - |
| 1777782369 | 10.56° C | 86% | 1014.9 hPa | 0 mm | - | 11 W/m² | - |
| 1777781694 | 10° C | 87% | 1014.7 hPa | 0 mm | - | 5 W/m² | - |
| 1777780994 | 10° C | 84% | 1014.6 hPa | 0 mm | - | 2 W/m² | - |
| 1777780259 | 10.56° C | 86% | 1014.6 hPa | 0 mm | - | 0 W/m² | - |
| 1777779558 | 10.56° C | 84% | 1014.6 hPa | 0 mm | - | 0 W/m² | - |
| 1777778870 | 10.56° C | 85% | 1014.7 hPa | 0 mm | - | 0 W/m² | - |
| 1777778183 | 10.56° C | 84% | 1014.6 hPa | 0 mm | - | 0 W/m² | - |
| 1777777495 | 10.56° C | 85% | 1014.4 hPa | 0 mm | - | 0 W/m² | - |
| 1777776759 | 10.56° C | 82% | 1014.6 hPa | 0 mm | - | 0 W/m² | - |
| 1777776058 | 10.56° C | 83% | 1014.7 hPa | 0 mm | - | 0 W/m² | - |
| 1777775372 | 10.56° C | 81% | 1014.8 hPa | 0 mm | - | 0 W/m² | - |
| 1777774683 | 11.11° C | 80% | 1015 hPa | 0 mm | - | 0 W/m² | - |
| 1777773997 | 11.67° C | 79% | 1015 hPa | 0 mm | - | 0 W/m² | - |
| 1777773260 | 11.67° C | 78% | 1015.1 hPa | 0 mm | - | 0 W/m² | - |
| 1777772559 | 12.22° C | 76% | 1015.2 hPa | 0 mm | - | 0 W/m² | - |
| 1777771873 | 11.67° C | 78% | 1015.2 hPa | 0 mm | - | 0 W/m² | - |
| 1777771184 | 12.22° C | 76% | 1015.2 hPa | 0 mm | - | 0 W/m² | - |
| 1777770495 | 12.22° C | 75% | 1015.2 hPa | 0 mm | - | 0 W/m² | - |
| 1777769808 | 12.22° C | 76% | 1015.2 hPa | 0 mm | - | 0 W/m² | - |
| 1777769122 | 12.78° C | 75% | 1015.3 hPa | 0 mm | - | 0 W/m² | - |
| 1777768422 | 12.78° C | 75% | 1015.3 hPa | 0 mm | - | 0 W/m² | - |
| 1777767735 | 13.33° C | 73% | 1015.4 hPa | 0 mm | - | 0 W/m² | - |
* Rain latest hour (hover to see other rain measurements)
** Current wind speed in m/s (hover to see current wind gust speed)